Weather History for Annette Island, AK

Change the Weather History Date:

Sunday, September 1, 2013

  Actual Average Record
Temperature  
Mean Temperature 61 °F 57 °F  
Max Temperature 72 °F 62 °F 80 °F (1974)
Min Temperature 50 °F 51 °F 44 °F (1999)
Degree Days  
Heating Degree Days 4    
Month to date heating degree days 4  
Since 1 July heating degree days 306 409  
Cooling Degree Days 0    
Month to date cooling degree days 0  
Year to date cooling degree days 22  
Growing Degree Days 12 (Base 50)    
Moisture  
Dew Point 55 °F    
Average Humidity 0    
Maximum Humidity 0    
Minimum Humidity 0    
Precipitation  
Precipitation 0.00 in 0.28 in 2.01 in (1948)
Month to date precipitation 0.00 0.28  
Year to date precipitation 51.60 55.19  
Snow  
Snow 0.00 in 0.00 in 0.00 in (2014)
Month to date snowfall 0.0 0.0  
Since 1 July snowfall 0.0 0.0  
Since 1 September snowfall 0.0 0.0  
Snow Depth 0.00 in    
Sea Level Pressure  
Sea Level Pressure 29.87 in    
Wind  
Wind Speed 5 mph (NW)    
Max Wind Speed 12 mph    
Max Gust Speed 15 mph    
Visibility 8 miles    
Events Fog    
T = Trace of Precipitation, MM = Missing Value Source: NWS Daily Summary

Daily Weather History Graph

Daily Weather History Graph

Search for Another Location

Airport:

Trip Planner

Search our weather history database for the weather conditions in past years. The results will help you decide how hot, cold, wet, or windy it might be!

Date:

Astronomy

Sep. 01, 2013 Rise Set
Actual Time 5:53 AM AKDT 7:37 PM AKDT
Civil Twilight 5:14 AM AKDT 8:15 PM AKDT
Nautical Twilight 4:27 AM AKDT 9:03 PM AKDT
Astronomical Twilight 3:32 AM AKDT 9:57 PM AKDT
Moon 1:57 AM AKDT (9/1) 5:38 PM AKDT (9/1)
Length of Visible Light 15h 00m
Length of Day
13h 44m
Waning Crescent, 13% of the Moon is Illuminated
Sep 1
Waning Crescent
Sep 5
New
Sep 12
First Quarter
Sep 19
Full
Sep 26
Last Quarter

Hourly Weather History & Observations

Time (AKDT) Temp. Dew Point Humidity Pressure Visibility Wind Dir Wind Speed Gust Speed Precip Events Conditions
12:53 AM 54.0 °F 54.0 °F 100% 29.91 in 10.0 mi NW 4.6 mph - N/A   Clear
1:53 AM 54.0 °F 54.0 °F 100% 29.90 in 10.0 mi NNW 5.8 mph - N/A   Clear
2:53 AM 55.0 °F 54.0 °F 96% 29.88 in 10.0 mi NW 8.1 mph - N/A   Clear
3:53 AM 54.0 °F 54.0 °F 100% 29.88 in 10.0 mi NNW 6.9 mph - N/A   Clear
4:53 AM 55.0 °F 54.0 °F 96% 29.87 in 10.0 mi NNW 4.6 mph - N/A   Partly Cloudy
5:53 AM 54.0 °F 54.0 °F 100% 29.87 in 10.0 mi NNW 6.9 mph - N/A   Scattered Clouds
6:07 AM 55.4 °F 53.6 °F 94% 29.87 in 10.0 mi NNW 8.1 mph - N/A   Mostly Cloudy
6:53 AM 55.0 °F 55.0 °F 100% 29.87 in 10.0 mi NNW 8.1 mph - N/A   Scattered Clouds
7:53 AM 57.0 °F 55.9 °F 96% 29.87 in 10.0 mi NNW 8.1 mph - N/A   Mostly Cloudy
8:00 AM 57.2 °F 55.4 °F 94% 29.86 in 10.0 mi NNW 6.9 mph - N/A   Mostly Cloudy
8:53 AM 59.0 °F 57.0 °F 93% 29.87 in 10.0 mi NNW 6.9 mph - N/A   Mostly Cloudy
9:43 AM 62.6 °F 57.2 °F 82% 29.86 in 10.0 mi WNW 8.1 mph - N/A   Scattered Clouds
9:53 AM 62.1 °F 57.0 °F 84% 29.87 in 10.0 mi NNW 11.5 mph - N/A   Partly Cloudy
10:53 AM 64.0 °F 57.0 °F 78% 29.87 in 10.0 mi NW 8.1 mph - N/A   Clear
11:53 AM 66.0 °F 57.0 °F 73% 29.87 in 10.0 mi Variable 3.5 mph - N/A   Mostly Cloudy
12:53 PM 69.1 °F 57.0 °F 65% 29.87 in 10.0 mi WNW 3.5 mph - N/A   Scattered Clouds
1:53 PM 71.1 °F 55.9 °F 59% 29.86 in 10.0 mi Variable 3.5 mph - N/A   Scattered Clouds
2:53 PM 70.0 °F 53.1 °F 55% 29.86 in 10.0 mi West 5.8 mph - N/A   Scattered Clouds
3:53 PM 68.0 °F 55.9 °F 65% 29.86 in 10.0 mi Variable 4.6 mph - N/A   Scattered Clouds
4:53 PM 63.0 °F 55.9 °F 78% 29.86 in 10.0 mi SSW 3.5 mph - N/A   Scattered Clouds
5:53 PM 61.0 °F 55.0 °F 81% 29.86 in 10.0 mi SSE 4.6 mph - N/A   Clear
6:53 PM 59.0 °F 55.9 °F 90% 29.86 in 10.0 mi Calm Calm - N/A   Clear
7:53 PM 55.9 °F 55.0 °F 97% 29.86 in 4.0 mi Calm Calm - N/A   Scattered Clouds
8:53 PM 53.1 °F 52.0 °F 96% 29.87 in 10.0 mi Calm Calm - N/A   Clear
9:53 PM 54.0 °F 53.1 °F 97% 29.87 in 10.0 mi NNE 3.5 mph - N/A   Clear
10:53 PM 53.1 °F 53.1 °F 100% 29.88 in 10.0 mi Calm Calm - N/A   Clear
11:25 PM 53.6 °F 53.6 °F 100% 29.88 in 2.5 mi Calm Calm - N/A   Scattered Clouds
11:28 PM 53.6 °F 53.6 °F 100% 29.87 in 1.0 mi South 3.5 mph - N/A   Mist
11:35 PM 53.6 °F 53.6 °F 100% 29.88 in 0.5 mi Calm Calm - N/A Fog Fog
11:45 PM 53.6 °F 53.6 °F 100% 29.88 in 0.2 mi Calm Calm - N/A Fog Fog
11:53 PM 53.1 °F 53.1 °F 100% 29.88 in 0.2 mi Calm Calm - N/A Fog Fog